STARLINK-1461 1 45730U 20038A 21056.75832371 .00000691 00000-0 65279-4 0 9991 2 45730 53.0592 207.3828 0002172 107.1704 252.9523 15.06401945 40295 STARLINK-1465 1 45731U 20038B 21056.44133289 .00000873 00000-0 77537-4 0 9992 2 45731 53.0575 208.8136 0002140 106.3354 253.7871 15.06395485 39128 STARLINK-1466 1 45732U 20038C 21056.43027085 -.00001379 00000-0 -73714-4 0 9995 2 45732 53.0602 208.8611 0002267 109.4215 250.7019 15.06394816 39126 STARLINK-1467 1 45733U 20038D 21056.43764699 .00000492 00000-0 51983-4 0 9992 2 45733 53.0628 208.7938 0002518 89.7063 270.4215 15.06395283 39122 STARLINK-1468 1 45734U 20038E 21056.41922677 .00000386 00000-0 44857-4 0 9997 2 45734 53.0578 208.9125 0002245 103.7486 256.3753 15.06385677 39126 STARLINK-1471 1 45735U 20038F 21056.38974081 -.00000761 00000-0 -32165-4 0 9998 2 45735 53.0581 209.0400 0001913 104.1639 255.9562 15.06391647 39111 STARLINK-1472 1 45736U 20038G 21056.76571632 .00000953 00000-0 82861-4 0 9995 2 45736 53.0574 207.3569 0002281 100.9773 259.1473 15.06403084 40290 STARLINK-1473 1 45737U 20038H 21056.51211973 .00044581 12262-4 81098-4 0 9991 2 45737 52.9975 89.0770 0008330 276.4674 83.5407 16.02003973 40806 STARLINK-1474 1 45738U 20038J 21056.77675965 -.00000823 00000-0 -36327-4 0 9996 2 45738 53.0576 207.3062 0002821 93.3776 266.7536 15.06393730 40290 STARLINK-1475 1 45739U 20038K 21056.59244919 .00000182 00000-0 31164-4 0 9998 2 45739 53.0626 168.1095 0002895 84.2957 275.8362 15.06404660 39705 STARLINK-1479 1 45740U 20038L 21056.58509517 .00000541 00000-0 55228-4 0 9993 2 45740 53.0578 208.1681 0001924 102.5753 257.5451 15.06399778 39146 STARLINK-1480 1 45741U 20038M 21056.42292133 .00000768 00000-0 70486-4 0 9994 2 45741 53.0578 208.8934 0002290 106.7461 253.3779 15.06402701 39131 STARLINK-1481 1 45742U 20038N 21056.41552798 .00001011 00000-0 86776-4 0 9991 2 45742 53.0598 208.9206 0002033 98.9863 261.1356 15.06405640 39111 STARLINK-1483 1 45743U 20038P 21056.78043915 .00000266 00000-0 36749-4 0 9994 2 45743 53.0580 207.2819 0002304 102.4515 257.6732 15.06408511 40144 STARLINK-1500 1 45744U 20038Q 21056.40447431 .00000728 00000-0 67761-4 0 9996 2 45744 53.0582 208.9742 0002042 108.4414 251.6797 15.06396312 39129 STARLINK-1503 1 45745U 20038R 21056.45976036 .00000974 00000-0 84271-4 0 9998 2 45745 53.0605 208.7169 0001542 103.8069 256.3091 15.06396529 39125 STARLINK-1504 1 45746U 20038S 21056.47449478 .00001073 00000-0 90924-4 0 9999 2 45746 53.0596 208.6600 0002157 102.8962 257.2268 15.06402552 39128 STARLINK-1506 1 45747U 20038T 21056.80992601 .00001005 00000-0 86365-4 0 9997 2 45747 53.0574 207.1519 0001244 108.8591 251.2533 15.06400365 40107 STARLINK-1507 1 45748U 20038U 21056.46344938 .00000929 00000-0 81243-4 0 9998 2 45748 53.0594 208.7058 0001991 105.7207 254.4001 15.06397579 39121 STARLINK-1516 1 45749U 20038V 21056.45325745 .00093233 14458-4 26935-3 0 9995 2 45749 52.9868 93.6613 0008193 273.4136 86.5953 15.92975231 40727 STARLINK-1391 1 45750U 20038W 21056.36209020 .00000653 00000-0 62757-4 0 9995 2 45750 53.0554 189.1728 0001613 98.2686 261.8486 15.06388708 39408 STARLINK-1464 1 45751U 20038X 21056.62378690 .00000848 00000-0 75818-4 0 9993 2 45751 53.0570 188.0018 0001792 108.0610 252.0575 15.06395778 40556 STARLINK-1469 1 45752U 20038Y 21056.51512557 .00008789 00000-0 88850-4 0 9996 2 45752 53.0020 100.1313 0002497 23.7641 336.3488 15.66236547 40654 STARLINK-1476 1 45753U 20038Z 21056.36945196 .00000799 00000-0 72550-4 0 9992 2 45753 53.0564 189.1443 0002056 111.8416 248.2792 15.06399214 39404 STARLINK-1477 1 45754U 20038AA 21056.63852536 .00001108 00000-0 93301-4 0 9990 2 45754 53.0575 187.9349 0001847 113.3188 246.7996 15.06398817 40407 STARLINK-1478 1 45755U 20038AB 21056.39156908 .00000834 00000-0 74927-4 0 9992 2 45755 53.0562 189.0423 0001750 105.0267 255.0916 15.06393250 39396 STARLINK-1484 1 45756U 20038AC 21056.78595936 .00001164 00000-0 97025-4 0 9995 2 45756 53.0561 187.2703 0001587 110.6101 249.5058 15.06400930 40575 STARLINK-1486 1 45757U 20038AD 21056.73804836 .00001001 00000-0 86176-4 0 9998 2 45757 53.0558 187.4885 0005249 131.3120 228.8321 15.06397809 40567 STARLINK-1487 1 45758U 20038AE 21056.79702352 -.00004690 00000-0 -29596-3 0 9996 2 45758 53.0557 187.2234 0001718 116.1340 243.9826 15.06421686 40575 STARLINK-1493 1 45759U 20038AF 21056.64590064 .00000813 00000-0 73489-4 0 9998 2 45759 53.0572 187.8970 0001722 113.5587 246.5583 15.06392136 40368 STARLINK-1494 1 45760U 20038AG 21056.38418996 .00000748 00000-0 69121-4 0 9999 2 45760 53.0560 189.0687 0001537 109.7972 250.3183 15.06399065 39405 STARLINK-1495 1 45761U 20038AH 21056.41000017 -.00000833 00000-0 -37041-4 0 9998 2 45761 53.0595 188.9533 0001972 111.8035 248.3164 15.06396081 39411 STARLINK-1499 1 45762U 20038AJ 21056.35471482 -.00000310 00000-0 -19050-5 0 9991 2 45762 53.0559 189.2076 0002043 107.5602 252.5610 15.06398365 39409 STARLINK-1501 1 45763U 20038AK 21056.71040722 .00000717 00000-0 68380-4 0 9999 2 45763 53.0014 187.6331 0002031 111.9010 248.2194 15.05591312 40374 STARLINK-1502 1 45764U 20038AL 21056.41368590 .00000851 00000-0 75979-4 0 9994 2 45764 53.0576 188.9413 0001873 102.5124 257.6074 15.06412492 39414 STARLINK-1508 1 45765U 20038AM 21056.35103059 -.00000665 00000-0 -25714-4 0 9992 2 45765 53.0582 189.2226 0002061 109.4445 250.6767 15.06397956 39408 STARLINK-1509 1 45766U 20038AN 21056.40262824 -.00001071 00000-0 -52996-4 0 9999 2 45766 53.0553 188.9961 0001676 103.8149 256.3026 15.06388002 39390 STARLINK-1511 1 45767U 20038AP 21056.52795019 .00000799 00000-0 72561-4 0 9994 2 45767 53.0562 188.4299 0002105 114.5666 245.5543 15.06404553 39418 STARLINK-1521 1 45768U 20038AQ 21056.64220712 .00000864 00000-0 76861-4 0 9991 2 45768 53.0566 187.9141 0001571 106.8995 253.2166 15.06406209 40361 STARLINK-1459 1 45769U 20038AR 21056.46712127 .00000632 00000-0 61306-4 0 9999 2 45769 53.0588 208.6966 0001912 104.8099 255.3102 15.06403228 39138 STARLINK-1462 1 45770U 20038AS 21056.60255707 .00000882 00000-0 78108-4 0 9998 2 45770 53.0613 168.0794 0001370 82.6212 277.4932 15.06403708 40822 STARLINK-1463 1 45771U 20038AT 21056.72883270 -.00000658 00000-0 -25278-4 0 9997 2 45771 53.0585 167.5163 0001279 80.8167 279.2966 15.06396701 40845 STARLINK-1470 1 45772U 20038AU 21056.58507176 .00000507 00000-0 52928-4 0 9993 2 45772 53.0590 168.1632 0001322 87.0237 273.0904 15.06403384 40824 STARLINK-1482 1 45773U 20038AV 21056.77673965 -.00000268 00000-0 92286-6 0 9993 2 45773 53.0612 167.3034 0001076 93.0084 267.1028 15.06400765 40708 STARLINK-1485 1 45774U 20038AW 21056.74726594 -.00000972 00000-0 -46383-4 0 9996 2 45774 53.0624 167.4173 0001465 82.2880 277.8275 15.06398681 40854 STARLINK-1488 1 45775U 20038AX 21056.48556041 .00000373 00000-0 43920-4 0 9993 2 45775 53.0584 168.6078 0001414 95.9811 264.1339 15.06401750 39700 STARLINK-1489 1 45776U 20038AY 21056.55928274 .00000835 00000-0 74953-4 0 9996 2 45776 53.0593 168.2838 0001535 103.3969 256.7191 15.06394075 39718 STARLINK-1490 1 45777U 20038AZ 21056.35655601 -.00000098 00000-0 12290-4 0 9994 2 45777 53.0584 169.1844 0001248 97.8534 262.2597 15.06396909 39688 STARLINK-1491 1 45778U 20038BA 21056.60350701 -.00000170 00000-0 74701-5 0 9993 2 45778 53.0576 168.0815 0001500 92.2618 267.8542 15.06407548 39705 STARLINK-1492 1 45779U 20038BB 21056.59982473 -.00000599 00000-0 -21293-4 0 9992 2 45779 53.0568 168.1007 0001409 86.0567 274.0583 15.06396071 39706 STARLINK-1496 1 45780U 20038BC 21056.67723188 -.00000628 00000-0 -23266-4 0 9994 2 45780 53.0561 167.7550 0001384 84.5646 275.5501 15.06396346 40648 STARLINK-1497 1 45781U 20038BD 21056.76937688 -.00000403 00000-0 -81397-5 0 9998 2 45781 53.0601 167.3371 0001351 91.6902 268.4242 15.06397341 40660 STARLINK-1498 1 45782U 20038BE 21056.56296837 -.00000768 00000-0 -32689-4 0 9994 2 45782 53.0584 168.2679 0001241 101.3059 258.8069 15.06393202 39718 STARLINK-1505 1 45783U 20038BF 21056.56665363 .00001032 00000-0 88152-4 0 9998 2 45783 53.0601 168.2476 0001512 84.8989 275.2172 15.06394279 39715 STARLINK-1510 1 45784U 20038BG 21056.60719251 -.00000129 00000-0 10207-4 0 9993 2 45784 53.0589 168.0624 0001240 87.0440 273.0691 15.06399345 39710 STARLINK-1512 1 45785U 20038BH 21056.58875169 .00001323 00000-0 10769-3 0 9990 2 45785 53.0600 168.1423 0001152 84.0389 276.0731 15.06409933 39717 STARLINK-1513 1 45786U 20038BJ 21056.57402266 .00001070 00000-0 90731-4 0 9991 2 45786 53.0592 168.2110 0001207 81.9642 278.1484 15.06398357 40639 STARLINK-1517 1 45787U 20038BK 21056.78043615 .00000599 00000-0 59092-4 0 9994 2 45787 53.0605 167.2879 0001237 90.8763 269.2368 15.06396759 40661 SKYSAT-C14 1 45788U 20038BL 21056.78366999 .00009464 00000-0 13802-3 0 9996 2 45788 52.9995 126.0395 0009572 66.8197 293.3821 15.56433955 40322 SKYSAT-C16 1 45789U 20038BM 21056.48314624 .00009419 00000-0 13918-3 0 9990 2 45789 53.0002 127.0230 0009654 56.5114 303.6817 15.56080090 40271 SKYSAT-C15 1 45790U 20038BN 21056.50393323 .00009008 00000-0 13363-3 0 9996 2 45790 52.9987 127.1262 0005271 37.4005 322.7371 15.56059657 40279